Home > Weather > Anaheim > Past weeks

Flag for USA Weather for the Past 2 Weeks in Anaheim, California, USA

Now
65 °F

Sunny.


Feels Like: 65 °F
Forecast: 56 / 70 °F
Wind: 8 mph from Southwest

Location: Fullerton Municipal Airport

Current Time: May 4, 2016 at 4:06:24 PM

Latest Report: May 4, 2016 at 2:53 PM


Visibility: 10 mi

Pressure: 29.90 "Hg

Humidity: 68%

Dew Point: 54 °F

Location of AnaheimLocation

Historic Weather in Anaheim — Graph

°F

Anaheim Temperature Yesterday

Maximum temperature yesterday: 79 °F (at 11:53 AM)
Minimum temperature yesterday: 59 °F (at 3:53 AM)
Average temperature yesterday: 67 °F

High & Low Weather Summary for the Past Weeks

 TemperatureHumidityPressure
High91 °F (Apr 19, 2:53 PM)90% (Apr 30, 7:04 AM)30.03 "Hg (Apr 30, 7:04 AM)
Low52 °F (Apr 26, 4:53 AM)8% (Apr 19, 4:53 PM)29.73 "Hg (Apr 27, 11:53 PM)
Average66 °F56%29.90 "Hg
* Reported Apr 19 10:53 AM — May 4 10:53 AM, Anaheim, Weather by CustomWeather, © 2016

Note: Actual official high and low records may vary slightly from our data, if they occured in-between our weather recording intervals... More about our weather records

Advertising

Anaheim Weather History for the Previous 24 Hours

Scroll right to see more
 ConditionsComfort  
Time TempWeatherWind HumidityBarometerVisibility
10:53 AM
Wed, May 4
64 °FOvercast.3 mph73%29.95 "Hg10 mi
9:53 AM63 °FOvercast.No wind75%29.96 "Hg9 mi
8:53 AM61 °FOvercast.5 mph81%29.96 "Hg8 mi
7:53 AM61 °FOvercast.3 mph81%29.94 "Hg7 mi
6:53 AM60 °FOvercast.No wind83%29.93 "Hg9 mi
5:53 AM60 °FOvercast.3 mph83%29.92 "Hg10 mi
4:53 AM60 °FLow clouds.No wind83%29.91 "Hg9 mi
3:53 AM60 °FLow clouds.3 mph83%29.92 "Hg9 mi
2:53 AM60 °FClear.3 mph83%29.94 "Hg10 mi
1:53 AM60 °FOvercast.No wind83%29.95 "Hg10 mi
12:53 AM61 °FPassing clouds.No wind81%29.95 "Hg10 mi
11:53 PM
Tue, May 3
61 °FClear.3 mph81%29.95 "Hg10 mi
10:53 PM62 °FClear.No wind78%29.95 "Hg10 mi
9:53 PM62 °FClear.No wind78%29.95 "Hg10 mi
8:53 PM63 °FClear.No wind78%29.93 "Hg10 mi
7:53 PM62 °FSunny.7 mph80%29.91 "Hg10 mi
6:53 PM70 °FSunny.6 mph61%29.88 "Hg10 mi
5:53 PM70 °FSunny.9 mph61%29.88 "Hg10 mi
4:53 PM75 °FSunny.9 mph48%29.88 "Hg10 mi
Weather by CustomWeather, © 2016

See weather overviewHow to use our weather pages